Simultaneous Nadir Overpasses (SNOs) Predictions

Prediction of SNOs between FY3D and METOP-C Satellite Orbit:

Table of predicted SNOs for the next 14.0 days since TLE Epoch: 5/24/2021
Index Date (FY3D) Time (FY3D) Lat,Lon (FY3D) SZA (FY3D ) Date (METOP-C) Time (METOP-C) Lat,Lon (METOP-C) SZA (METOP-C ) Distance(km) Time Diff (sec)
1 06/06/2021 20:50:21 74.05,-140.76 51.40 06/06/2021 20:51:27 74.00,-137.95 51.24 86.22 66
2 06/06/2021 21:41:03 -73.98, 26.72 128.68 06/06/2021 21:42:11 -73.94, 29.23 128.83 77.45 68
3 06/06/2021 22:31:44 73.75,-165.41 51.07 06/06/2021 22:32:54 73.73,-163.94 50.98 46.06 70
4 06/06/2021 23:22:27 -73.74, 1.94 128.95 06/06/2021 23:23:38 -73.67, 3.25 129.08 41.75 71
5 06/07/2021 00:13:08 73.51, 169.80 50.80 06/07/2021 00:14:21 73.46, 170.10 50.72 11.17 73
6 06/07/2021 01:03:51 -73.50, -22.86 129.23 06/07/2021 01:05:04 -73.45, -22.59 129.29 9.75 73
7 06/07/2021 01:54:35 73.41, 144.65 50.68 06/07/2021 01:55:43 73.43, 144.71 50.69 3.08 68



Historial Predications of SNOs between FY3D and METOP-C
